OSTR-WX Weather Reports


time (UTC)temp
F
wind
direction
speed
knots
gust
knots
rain 1hr
in
rain 24hr
in
rain mn
in
humidity
%
barometer
mb
20260508043255 52 0.0 0.0 0.00 0.00 0.00 100 1017.5
20260508041659 51 0.0 0.0 0.00 0.00 0.00 100 1017.4
20260508034504 52 0.0 0.0 0.00 0.00 0.00 100 1016.9
20260508032907 52 0.0 0.0 0.00 0.00 0.00 100 1016.5
20260508031315 53 0.0 0.0 0.00 0.00 0.00 100 1016.6
20260508031310 53 0.0 0.0 0.00 0.00 0.00 100 1016.6
20260508025713 52 0.0 0.0 0.00 0.00 0.00 100 1016.3
20260508024116 52 0.0 0.0 0.00 0.00 0.00 100 1016.3
20260508022519 53 0.0 0.0 0.00 0.00 0.00 100 1016.5
20260508020922 53 0.0 0.0 0.00 0.00 0.00 100 1016.5
20260508015325 53 0.0 0.0 0.00 0.00 0.00 100 1016.7
20260508013728 54 0.0 0.0 0.00 0.00 0.00 100 1016.6
20260508012131 54 0.0 0.0 0.00 0.00 0.00 100 1016.5
20260508010534 55 0.0 0.0 0.00 0.00 0.00 100 1016.2
20260508004938 55 0.0 0.0 0.00 0.00 0.00 100 1016.0
20260508003341 55 0.0 0.0 0.00 0.00 0.00 100 1016.0
20260508001745 56 0.0 0.0 0.00 0.00 0.00 100 1015.9
20260508000147 56 0.0 0.0 0.00 0.00 0.00 100 1015.8
20260507234555 56 0.0 0.0 0.00 0.00 0.00 100 1016.0
20260507234550 56 0.0 0.0 0.00 0.00 0.00 100 1016.0
20260507232956 55 0.0 0.0 0.00 0.00 0.00 100 1016.1
20260507232952 55 0.0 0.0 0.00 0.00 0.00 100 1016.1
20260507231359 55 0.0 0.0 0.00 0.00 0.00 100 1016.2
20260507231355 55 0.0 0.0 0.00 0.00 0.00 100 1016.2
20260507225758 55 0.0 0.0 0.00 0.00 0.00 100 1016.3
20260507224201 55 0.0 0.0 0.00 0.00 0.00 100 1016.2
20260507222603 55 0.0 0.0 0.00 0.00 0.00 100 1016.0
20260507221007 55 0.0 0.0 0.00 0.00 0.00 100 1016.1
20260507215411 55 0.0 0.0 0.00 0.00 0.00 100 1016.0
20260507213816 55 0.0 0.0 0.00 0.00 0.00 100 1016.0
20260507213812 55 0.0 0.0 0.00 0.00 0.00 100 1016.0
20260507212216 55 0.0 0.0 0.00 0.00 0.00 100 1015.5
20260507210623 55 0.0 0.0 0.00 0.00 0.00 100 1015.3
20260507210619 55 0.0 0.0 0.00 0.00 0.00 100 1015.3
20260507205022 56 0.0 0.0 0.00 0.00 0.00 100 1015.2
20260507203428 56 0.0 0.0 0.00 0.00 0.00 100 1015.3
20260507203424 56 0.0 0.0 0.00 0.00 0.00 100 1015.3
20260507201828 55 0.0 0.0 0.00 0.00 0.00 100 1015.4
20260507200235 55 0.0 0.0 0.00 0.00 0.00 100 1015.1
20260507200231 55 0.0 0.0 0.00 0.00 0.00 100 1015.1
20260507194633 55 0.0 0.0 0.00 0.00 0.00 100 1014.7
20260507193036 55 0.0 0.0 0.00 0.00 0.00 99 1014.7
20260507191439 56 0.0 0.0 0.00 0.00 0.00 95 1014.6
20260507185847 58 0.0 0.0 0.00 0.00 0.00 90 1014.5
20260507185842 58 0.0 0.0 0.00 0.00 0.00 90 1014.5
20260507184246 59 0.0 0.0 0.00 0.00 0.00 84 1014.1
20260507182653 59 0.0 0.0 0.00 0.00 0.00 85 1013.5
20260507182649 59 0.0 0.0 0.00 0.00 0.00 85 1013.5
20260507181051 60 0.0 0.0 0.00 0.00 0.00 82 1013.0
20260507175459 62 0.0 0.0 0.00 0.00 0.00 81 1012.8
20260507175455 62 0.0 0.0 0.00 0.00 0.00 81 1012.8
20260507173857 62 0.0 0.0 0.00 0.00 0.00 82 1012.3
20260507172300 62 0.0 0.0 0.00 0.00 0.00 81 1012.0
20260507170704 63 0.0 0.0 0.00 0.00 0.00 81 1011.7
20260507165113 64 0.0 0.0 0.00 0.00 0.00 80 1011.5
20260507165107 64 0.0 0.0 0.00 0.00 0.00 80 1011.5
20260507163510 64 0.0 0.0 0.00 0.00 0.00 79 1011.3
20260507161913 65 0.0 0.0 0.00 0.00 0.00 80 1011.1
20260507160321 65 0.0 0.0 0.00 0.00 0.00 82 1011.1
20260507160317 65 0.0 0.0 0.00 0.00 0.00 82 1011.1
20260507154719 65 0.0 0.0 0.00 0.00 0.00 83 1011.1
20260507153122 66 0.0 0.0 0.00 0.00 0.00 81 1011.2
20260507151525 66 0.0 0.0 0.00 0.00 0.00 78 1011.2
20260507145929 66 0.0 0.0 0.00 0.00 0.00 86 1011.1
20260507144332 66 0.0 0.0 0.00 0.00 0.00 87 1011.2
20260507142734 66 0.0 0.0 0.00 0.00 0.00 83 1011.3
20260507141144 65 0.0 0.0 0.00 0.00 0.00 83 1011.3
20260507141137 65 0.0 0.0 0.00 0.00 0.00 83 1011.3
20260507135540 65 0.0 0.0 0.00 0.00 0.00 83 1011.2
20260507133943 68 0.0 0.0 0.00 0.00 0.00 67 1011.2
20260507132346 70 0.0 0.0 0.00 0.00 0.00 60 1010.9
20260507130749 71 0.0 0.0 0.00 0.00 0.00 61 1010.8
20260507125152 72 0.0 0.0 0.00 0.00 0.00 60 1010.9
20260507123555 71 0.0 0.0 0.00 0.00 0.00 62 1010.9
20260507121959 71 0.0 0.0 0.00 0.00 0.00 61 1011.0
20260507120401 72 0.0 0.0 0.00 0.00 0.00 59 1010.9
20260507114805 72 0.0 0.0 0.00 0.00 0.00 61 1010.9
20260507113207 72 0.0 0.0 0.00 0.00 0.00 62 1011.0
20260507111610 71 0.0 0.0 0.00 0.00 0.00 62 1011.1
20260507110019 71 0.0 0.0 0.00 0.00 0.00 65 1011.2
20260507110014 71 0.0 0.0 0.00 0.00 0.00 65 1011.2
20260507104417 70 0.0 0.0 0.00 0.00 0.00 69 1011.1
20260507102819 70 0.0 0.0 0.00 0.00 0.00 67 1011.1
20260507101222 71 0.0 0.0 0.00 0.00 0.00 67 1010.9
20260507095625 71 0.0 0.0 0.00 0.00 0.00 68 1010.8
20260507094029 70 0.0 0.0 0.00 0.00 0.00 69 1010.7
20260507092818 69 0.0 0.0 0.00 0.00 0.00 71 1010.8
20260507092431 69 0.0 0.0 0.00 0.00 0.00 71 1010.8
20260507090839 67 0.0 0.0 0.00 0.00 0.00 72 1010.7
20260507090834 67 0.0 0.0 0.00 0.00 0.00 72 1010.7
20260507085237 68 0.0 0.0 0.00 0.00 0.00 73 1010.4
20260507083647 69 0.0 0.0 0.00 0.00 0.00 72 1010.1
20260507083642 69 0.0 0.0 0.00 0.00 0.00 72 1010.1
20260507082043 67 0.0 0.0 0.00 0.00 0.00 73 1010.0
20260507080446 67 0.0 0.0 0.00 0.00 0.00 74 1010.1
20260507074849 66 0.0 0.0 0.00 0.00 0.00 74 1009.9
20260507073252 65 0.0 0.0 0.00 0.00 0.00 78 1009.8
20260507071655 64 0.0 0.0 0.00 0.00 0.00 78 1009.7
20260507070104 63 0.0 0.0 0.00 0.00 0.00 81 1009.8
20260507070058 63 0.0 0.0 0.00 0.00 0.00 81 1009.8
20260507064501 63 0.0 0.0 0.00 0.00 0.00 82 1009.9
20260507062904 62 0.0 0.0 0.00 0.00 0.00 83 1009.9
20260507061307 62 0.0 0.0 0.00 0.00 0.00 83 1009.7
20260507055710 62 0.0 0.0 0.00 0.00 0.00 86 1009.5
20260507054117 62 0.0 0.0 0.00 0.00 0.00 86 1009.2
20260507054113 62 0.0 0.0 0.00 0.00 0.00 86 1009.2
20260507052516 62 0.0 0.0 0.00 0.00 0.00 85 1009.1
20260507050919 62 0.0 0.0 0.00 0.00 0.00 86 1008.9
20260507045322 62 0.0 0.0 0.00 0.00 0.00 86 1008.8